Retour au catalogue

VSP RF C1

ActifScienceSSO
NORAD 59136·PAYLOAD·🇧🇪 Belgium

Lancé Mar 4, 2024 depuis Vandenberg Space Force Base

Loading…

Prochains Passages (prochaines 24 heures)

TLE

FraisSource: Space-Track

Époque: Sep 14, 2026, 22:15 UTC

1 59136U 24043AQ  26257.92774735  .00003711  00000-0  13982-3 0  9991
2 59136  97.5743  37.3017 0001132  89.8622 270.2746 15.27733986140794

Suivez VSP RF C1 en temps réel avec AllMySat

Download on the App Store